Date String (YYYY-MM-DD hh:mm:ss) UTC,Instrument flags,Ambient pressure (hPa),Sample flow (lpm),Bypass flow (lpm),Sample temperature (°C),Ambient temperature (°C),ASC tube jacket temperature (°C),LED temperature (°C),Box temperature (°C),Sample RH (%),Span deviation,Mass concentration (μg/m³),Mass concentration (μg/m³),Mass concentration (μg/m³)
DateTimeUTC,F1_M11,P_M11,Q1_M11,Q2_M11,T1_M11,T2_M11,T3_M11,T4_M11,T5_M11,U1_M11,ZSPAN_M11,X0_M11,X2_M11,X1_M11
2021-11-29 07:00:00,,0829.1,4.99,0.00,29.5,28.6,00.0,38.5,31.2,09.4,0000.0,0001.39,0000.64,0000.33
2021-11-29 07:01:00,,0829.0,5.01,0.00,29.5,28.6,00.0,38.5,31.2,09.4,0000.0,0001.32,0000.63,0000.33
2021-11-29 07:02:00,,0829.0,5.00,0.00,29.5,28.6,00.0,38.5,31.2,09.4,0000.0,0001.17,0000.60,0000.33
2021-11-29 07:03:00,,0829.0,5.00,0.00,29.5,28.6,00.0,38.5,31.2,09.4,0000.0,0001.21,0000.61,0000.33
2021-11-29 07:04:00,,0829.0,5.00,0.00,29.5,28.6,00.0,38.5,31.2,09.5,0000.0,0001.23,0000.59,0000.33
2021-11-29 07:05:00,,0829.0,4.99,0.00,29.5,28.6,00.0,38.5,31.2,09.5,0000.0,0001.15,0000.60,0000.33
2021-11-29 07:06:00,,0829.0,4.99,0.00,29.5,28.6,00.0,38.5,31.2,09.4,0000.0,0001.23,0000.63,0000.33
2021-11-29 07:07:00,,0829.0,5.00,0.00,29.5,28.6,00.0,38.5,31.2,09.3,0000.0,0001.25,0000.63,0000.33
2021-11-29 07:08:00,,0828.9,5.01,0.00,29.5,28.6,00.0,38.5,31.2,09.4,0000.0,0001.16,0000.61,0000.33
2021-11-29 07:09:00,,0828.9,5.01,0.00,29.5,28.6,00.0,38.5,31.2,09.4,0000.0,0001.17,0000.60,0000.31
2021-11-29 07:10:00,,0828.8,4.98,0.00,29.5,28.6,00.0,38.5,31.2,09.5,0000.0,0001.17,0000.59,0000.31
2021-11-29 07:11:00,,0828.8,5.00,0.00,29.5,28.6,00.0,38.5,31.2,09.5,0000.0,0001.18,0000.59,0000.31
2021-11-29 07:12:00,,0828.8,5.00,0.00,29.5,28.6,00.0,38.5,31.2,09.3,0000.0,0001.20,0000.59,0000.31
2021-11-29 07:13:00,,0828.8,4.99,0.00,29.5,28.6,00.0,38.5,31.2,09.4,0000.0,0001.26,0000.59,0000.30
2021-11-29 07:14:00,,0828.9,5.01,0.00,29.4,28.6,00.0,38.5,31.1,09.4,0000.0,0001.25,0000.58,0000.30
2021-11-29 07:15:00,,0828.8,5.00,0.00,29.4,28.6,00.0,38.5,31.1,09.4,0000.0,0001.18,0000.57,0000.30
2021-11-29 07:16:00,,0828.9,4.99,0.00,29.4,28.5,00.0,38.5,31.1,09.5,0000.0,0001.10,0000.53,0000.30
2021-11-29 07:17:00,,0829.0,5.01,0.00,29.4,28.5,00.0,38.4,31.1,09.5,0000.0,0001.08,0000.52,0000.30
2021-11-29 07:18:00,,0829.1,4.99,0.00,29.4,28.5,00.0,38.4,31.1,09.5,0000.0,0001.06,0000.51,0000.30
2021-11-29 07:19:00,,0829.0,5.00,0.00,29.4,28.5,00.0,38.4,31.1,09.5,0000.0,0001.12,0000.53,0000.29
2021-11-29 07:20:00,,0829.0,5.01,0.00,29.4,28.5,00.0,38.4,31.1,09.5,0000.0,0001.13,0000.53,0000.29
2021-11-29 07:21:00,,0829.0,4.98,0.00,29.4,28.5,00.0,38.4,31.1,09.6,0000.0,0001.10,0000.53,0000.29
2021-11-29 07:22:00,,0829.0,5.00,0.00,29.4,28.5,00.0,38.4,31.1,09.6,0000.0,0001.15,0000.52,0000.29
2021-11-29 07:23:00,,0829.0,5.00,0.00,29.4,28.5,00.0,38.4,31.1,09.5,0000.0,0001.28,0000.53,0000.29
2021-11-29 07:24:00,,0829.0,5.01,0.00,29.4,28.5,00.0,38.4,31.1,09.5,0000.0,0001.28,0000.52,0000.29
2021-11-29 07:25:00,,0829.0,4.99,0.00,29.4,28.5,00.0,38.4,31.1,09.6,0000.0,0001.96,0000.56,0000.29
2021-11-29 07:26:00,,0829.1,4.99,0.00,29.4,28.5,00.0,38.4,31.1,09.6,0000.0,0003.09,0000.59,0000.29
2021-11-29 07:27:00,,0829.1,5.00,0.00,29.4,28.5,00.0,38.4,31.1,09.6,0000.0,0003.09,0000.58,0000.29
2021-11-29 07:28:00,,0829.0,5.01,0.00,29.4,28.5,00.0,38.4,31.1,09.6,0000.0,0003.09,0000.58,0000.28
2021-11-29 07:29:00,,0829.0,5.01,0.00,29.4,28.5,00.0,38.4,31.1,09.6,0000.0,0003.09,0000.58,0000.28
2021-11-29 07:30:00,,0829.0,5.00,0.00,29.4,28.6,00.0,38.4,31.1,09.6,0000.0,0003.03,0000.57,0000.29
2021-11-29 07:31:00,,0828.9,4.99,0.00,29.4,28.5,00.0,38.4,31.1,09.7,0000.0,0003.00,0000.56,0000.29
2021-11-29 07:32:00,,0828.9,5.01,0.00,29.4,28.5,00.0,38.4,31.1,09.8,0000.0,0003.01,0000.56,0000.29
2021-11-29 07:33:00,,0828.8,5.00,0.00,29.4,28.5,00.0,38.4,31.0,09.8,0000.0,0002.99,0000.56,0000.28
2021-11-29 07:34:00,,0828.9,5.00,0.00,29.3,28.5,00.0,38.4,31.0,09.8,0000.0,0004.08,0000.52,0000.27
2021-11-29 07:35:00,,0828.9,4.99,0.00,29.3,28.5,00.0,38.4,31.0,09.8,0000.0,0004.12,0000.52,0000.27
2021-11-29 07:36:00,,0828.9,5.01,0.00,29.3,28.5,00.0,38.4,31.0,09.9,0000.0,0003.61,0000.48,0000.26
2021-11-29 07:37:00,,0828.9,4.99,0.00,29.3,28.4,00.0,38.4,31.0,09.9,0000.0,0002.39,0000.42,0000.25
2021-11-29 07:38:00,,0829.0,5.00,0.00,29.3,28.4,00.0,38.3,31.0,10.0,0000.0,0003.86,0000.42,0000.25
2021-11-29 07:39:00,,0829.2,5.01,0.00,29.3,28.4,00.0,38.3,31.0,10.2,0000.0,0003.82,0000.40,0000.26
2021-11-29 07:40:00,,0828.9,5.00,0.00,29.3,28.4,00.0,38.3,31.0,10.2,0000.0,0003.78,0000.38,0000.25
2021-11-29 07:41:00,,0828.8,5.00,0.00,29.3,28.4,00.0,38.3,31.0,10.1,0000.0,0003.76,0000.37,0000.25
2021-11-29 07:42:00,,0828.9,5.01,0.00,29.3,28.5,00.0,38.3,31.0,10.1,0000.0,0003.84,0000.37,0000.25
2021-11-29 07:43:00,,0828.8,5.00,0.00,29.3,28.5,00.0,38.3,31.0,10.2,0000.0,0003.88,0000.37,0000.25
2021-11-29 07:44:00,,0829.3,4.99,0.00,29.3,28.5,00.0,38.3,31.0,10.2,0000.0,0004.07,0000.38,0000.25
2021-11-29 07:45:00,,0829.0,5.01,0.00,29.3,28.5,00.0,38.3,31.1,10.2,0000.0,0002.80,0000.38,0000.25
2021-11-29 07:46:00,,0828.9,5.00,0.00,29.3,28.5,00.0,38.3,31.0,10.2,0000.0,0002.74,0000.40,0000.26
2021-11-29 07:47:00,,0829.0,5.00,0.00,29.3,28.5,00.0,38.3,31.1,10.2,0000.0,0004.21,0000.43,0000.25
2021-11-29 07:48:00,,0828.9,5.00,0.00,29.4,28.5,00.0,38.3,31.1,10.1,0000.0,0004.36,0000.45,0000.25
2021-11-29 07:49:00,,0828.9,5.00,0.00,29.4,28.5,00.0,38.3,31.1,10.1,0000.0,0002.88,0000.43,0000.24
2021-11-29 07:50:00,,0829.2,5.01,0.00,29.4,28.5,00.0,38.3,31.1,10.0,0000.0,0002.85,0000.42,0000.24
2021-11-29 07:51:00,,0828.9,4.98,0.00,29.4,28.5,00.0,38.3,31.1,10.0,0000.0,0002.88,0000.43,0000.24
2021-11-29 07:52:00,,0828.7,5.01,0.00,29.4,28.5,00.0,38.3,31.1,10.1,0000.0,0003.52,0000.48,0000.24
2021-11-29 07:53:00,,0828.7,5.01,0.00,29.4,28.5,00.0,38.3,31.1,10.1,0000.0,0003.67,0000.48,0000.23
2021-11-29 07:54:00,,0828.7,4.99,0.00,29.4,28.5,00.0,38.3,31.1,10.1,0000.0,0003.56,0000.46,0000.22
2021-11-29 07:55:00,,0828.7,5.01,0.00,29.4,28.5,00.0,38.3,31.1,10.1,0000.0,0003.44,0000.47,0000.22
2021-11-29 07:56:00,,0828.7,4.99,0.00,29.3,28.5,00.0,38.3,31.1,10.0,0000.0,0003.58,0000.54,0000.22
2021-11-29 07:57:00,,0828.7,5.00,0.00,29.4,28.5,00.0,38.3,31.1,10.0,0000.0,0003.64,0000.55,0000.23
2021-11-29 07:58:00,,0828.7,5.00,0.00,29.4,28.5,00.0,38.3,31.1,10.0,0000.0,0002.05,0000.53,0000.22
2021-11-29 07:59:00,,0829.1,4.99,0.00,29.4,28.5,00.0,38.3,31.1,10.1,0000.0,0001.95,0000.51,0000.22
